Date,TemperatureHighF,TemperatureAvgF,TemperatureLowF,DewpointHighF,DewpointAvgF,DewpointLowF,HumidityHigh,HumidityAvg,HumidityLow,PressureMaxIn,PressureMinIn,WindSpeedMaxMPH,WindSpeedAvgMPH,GustSpeedMaxMPH,PrecipitationSumIn
2013-1-1,77.0,62.9,50.0,60.0,55.9,49.0,96,80,52,0.00,40.00,5,2,0,0.00
2013-1-2,80.0,66.3,55.0,67.0,60.2,54.0,96,82,58,0.00,40.00,5,2,0,0.00
2013-1-3,73.0,63.5,56.0,66.0,61.3,55.0,97,93,73,0.00,40.00,6,3,0,0.00
2013-1-4,60.0,56.7,54.0,57.0,55.3,53.0,96,94,90,0.00,40.00,6,4,0,0.00
2013-1-5,75.0,62.9,53.0,62.0,57.2,51.0,96,83,63,0.00,40.00,7,4,0,0.00
2013-1-6,80.0,67.0,62.0,68.0,63.9,60.0,96,90,66,0.00,40.00,4,2,0,0.00
2013-1-7,68.0,62.3,57.0,65.0,58.1,53.0,95,86,70,0.00,40.00,8,4,0,0.00
2013-1-8,81.0,69.0,60.0,68.0,63.9,59.0,96,84,60,0.00,40.00,6,4,0,0.00
2013-1-9,83.0,73.3,68.0,70.0,68.0,66.0,95,84,60,0.00,40.00,8,4,0,0.00
2013-1-10,82.0,71.4,63.0,69.0,64.8,61.0,97,81,50,0.00,40.00,9,4,0,0.00
2013-1-11,79.0,69.5,62.0,69.0,64.8,60.0,96,85,64,0.00,40.00,7,3,0,0.00
2013-1-12,82.0,69.7,60.0,69.0,63.1,59.0,97,81,53,0.00,40.00,6,3,0,0.00
2013-1-13,82.0,70.2,60.0,67.0,63.3,59.0,96,80,53,0.00,40.00,6,3,0,0.00
2013-1-14,81.0,69.6,61.0,67.0,63.0,60.0,96,81,54,0.00,40.00,6,3,0,0.00
2013-1-15,81.0,70.1,60.0,68.0,63.2,58.0,96,81,53,0.00,40.00,6,2,0,0.00
2013-1-16,82.0,69.6,62.0,67.0,61.2,59.0,96,77,45,0.00,40.00,3,2,0,0.00
2013-1-17,78.0,63.1,53.0,68.0,58.2,45.0,96,84,70,0.00,40.00,13,6,0,0.00
2013-1-18,63.0,51.7,38.0,58.0,46.0,33.0,94,81,69,0.00,40.00,11,6,0,0.03
2013-1-19,73.0,62.7,53.0,60.0,56.0,50.0,88,79,62,0.00,40.00,12,6,0,0.00
2013-1-20,74.0,63.5,58.0,62.0,58.5,55.0,94,84,64,0.00,40.00,8,4,0,0.00
2013-1-21,73.0,65.0,60.0,63.0,58.1,55.0,86,78,70,0.00,40.00,6,3,0,0.00
2013-1-22,66.0,56.9,48.0,55.0,43.3,35.0,86,62,31,0.00,40.00,8,4,0,0.00
2013-1-23,69.0,54.1,42.0,44.0,35.8,29.0,86,55,23,0.00,40.00,6,3,0,0.00
2013-1-24,72.0,56.3,41.0,51.0,45.6,40.0,94,71,39,0.00,40.00,7,3,0,0.00
2013-1-25,76.0,59.7,46.0,57.0,48.9,45.0,96,72,37,0.00,40.00,6,2,0,0.00
2013-1-26,75.0,60.2,47.0,57.0,51.1,46.0,95,74,44,0.00,40.00,6,2,0,0.00
2013-1-27,78.0,62.8,50.0,61.0,54.3,49.0,96,77,44,0.00,40.00,8,4,0,0.00
2013-1-28,78.0,67.3,60.0,65.0,62.3,58.0,96,85,64,0.00,40.00,8,5,0,0.00
2013-1-29,83.0,70.1,63.0,70.0,65.0,62.0,97,85,53,0.00,40.00,7,4,0,0.00
2013-1-30,84.0,72.3,64.0,66.0,63.9,61.0,95,77,50,0.00,40.00,6,4,0,0.00
2013-1-31,69.0,57.8,46.0,65.0,39.7,27.0,90,53,24,0.00,40.00,9,5,0,0.00